Location: Canazei
(46.4667°N, 11.7667°E)
Time: 05:58:42
(UTC+00:00)

Cosmos 2082 Rocket - Pass Details

Date: 21 April 2021
Orbit: 835 x 852 km, 71.0° (Epoch: 15 May)

Event Time Altitude Azimuth Distance (km) Brightness Sun altitude
Rises 00:57:58 0° 334° (NNW) 3,397 5.8 -27.0°
Reaches altitude 10° 01:00:26 10° 337° (NNW) 2,457 5.0 -26.8°
Maximum altitude 01:06:04 71° 62° (ENE) 884 2.3 -26.3°
Enters shadow 01:08:16 38° 135° (SE) 1,261 2.9 -26.1°
